Regional Weather Roundup
Issued by NWS San Diego, CA

Home | Current Version | Previous Version | Text Only | Print | Product List | Glossary On
Versions: 1 2 3 4 5 6 7 8 9 10 11 12 13 14 15 16 17 18 19 20 21 22 23 24 25 26 27 28 29 30 31 32 33 34 35 36 37 38 39 40 41 42 43 44 45 46 47 48 49 50
000
ASUS46 KSGX 020711
RWRSGX

SAN DIEGO HOURLY WEATHER ROUNDUP
NATIONAL WEATHER SERVICE SAN DIEGO CA
1100 PM PST SUN MAR 01 2015

NOTE: "FAIR" INDICATES FEW OR NO CLOUDS BELOW 12,000 FEET WITH NO
SIGNIFICANT WEATHER AND/OR OBSTRUCTIONS TO VISIBILITY.

CAZ042-043-060-061-PZZ750-775-020800-

GREATER SAN DIEGO AREA

CITY           SKY/WX    TMP DP  RH WIND       PRES   REMARKS
LINDBERGH FLD  MOCLDY    56  47  71 SE9       29.97S
NATIONAL CITY    N/A     54  51  90 CALM      29.97R
CHULA VISTA      N/A     52  51  96 CALM      29.89F
IMPERIAL BEACH LGT RAIN  53  50  89 S6        29.98R
BROWN FIELD    LGT RAIN  52  48  86 S7        29.96R
MIRAMAR MCAS   CLOUDY    53  48  83 SE5       29.95F
MONTGOMERY FLD CLOUDY    53  48  83 SE5       29.95F

$$

NORTH SAN DIEGO COUNTY

CITY           SKY/WX    TMP DP  RH WIND       PRES   REMARKS
CAMP PENDLETON LGT RAIN  52  47  83 CALM      29.95S
OCEANSIDE AP   LGT RAIN  53  48  83 NE6       29.94S
OCEANSIDE HBR    N/A     53  50  88 E3        29.98R
VISTA            N/A     50  45  82 CALM      29.94F
CARLSBAD       LGT RAIN  53  47  79 CALM      29.94S
DEL MAR          N/A     52  49  89 CALM      29.97F
LA JOLLA SCRIP   N/A     54  10  17 CALM      29.93S
FALLBROOK        N/A     49  49 100 CALM      29.96F
ESCONDIDO        N/A     51  47  87 CALM      29.97F
SAN MARCOS       N/A     51  47  85 CALM      29.95R
POWAY            N/A     50  47  91 CALM      29.97F

$$

EAST SAN DIEGO COUNTY

CITY           SKY/WX    TMP DP  RH WIND       PRES   REMARKS
RAMONA         CLOUDY    47  45  93 CALM      29.93F
SANTEE LAKES     N/A     51  49  92 CALM      29.97F
LA MESA          N/A     51  48  91 CALM      29.91S
JAMUL            N/A     48  46  91 CALM      29.96F
DESCANSO N       N/A     40  38  91 SE10      29.87F WCI  34
MT. LAGUNA OBS   N/A     31  31 100 CALM      29.51S
CAMPO            N/A     43  42  97 CALM      29.90F

$$

ORANGE COUNTY AND THE LOS ANGELES BASIN

CITY           SKY/WX    TMP DP  RH WIND       PRES   REMARKS
JOHN WAYNE AP  MOCLDY    57  44  62 E5        29.94F
LAGUNA BEACH     N/A     52  48  87 CALM      29.91S
LAKE FOREST FR   N/A     50  41  70 CALM      29.86S
SANTA ANA        N/A     56  46  69 CALM      29.89F
HUNTINGTON BCH   N/A     54  48  81 CALM      29.96F
LOS ALAMITOS   MOCLDY    54  47  77 SE5       29.94F
FULLERTON      CLOUDY    55  44  66 E5        29.93F
LONG BEACH     CLOUDY    56  47  71 SE8       29.94F
L.A. AP        RAIN      51  48  89 NW8       29.95S
L.A. DOWNTOWN  LGT RAIN  50  47  89 VRB5      29.94F FOG

$$

THE INLAND EMPIRE

CITY           SKY/WX    TMP DP  RH WIND       PRES   REMARKS
CORONA         PTCLDY    48  46  93 CALM      29.95S
CHINO          CLOUDY    50  46  86 CALM      29.96R
ONTARIO        MOCLDY    51  43  74 CALM      29.94S
RIVERSIDE AP   CLOUDY    50  43  77 SE5       29.94S
RIV CYN CREST    N/A     49  48  97 S1          N/A
MORENO VALLEY    N/A     46  45  95 E1        29.13S
MARCH ARB      CLOUDY    46  45  97 CALM      29.94S
HORSETHIEF CYN   N/A     47  41  78 CALM      29.94S
PERRIS           N/A     47  44  90 SE2         N/A
MENIFEE          N/A     47  46  93 CALM      30.04F
HEMET EAST       N/A     44  40  86 CALM      29.97S
FRENCH VALLEY  CLOUDY    46  45  93 CALM      29.94S
TEMECULA         N/A     48  47  98 CALM      29.89F

$$

SAN BERNARDINO AND RIVERSIDE COUNTY MOUNTAINS

CITY           SKY/WX    TMP DP  RH WIND       PRES   REMARKS
BIG BEAR AP    MOCLDY    27  23  86 CALM      29.88S
PINE COVE        N/A     31  31  99 CALM      29.98S

$$

SOUTHERN DESERT INCLUDING THE COACHELLA VALLEY

CITY           SKY/WX    TMP DP  RH WIND       PRES   REMARKS
PALM SPRINGS   CLOUDY    52  51  97 MISG      29.97S
THOUSAND PALMS   N/A     51  49  92 W1        29.95S
PALM DESERT      N/A     51  49  92 CALM      26.96S
THERMAL        NOT AVBL
BLYTHE         LGT RAIN  52  51  97 W8        29.96R FOG
IMPERIAL AP    LGT RAIN  53  50  89 W3        29.96F
EL CENTRO NAS  LGT RAIN  53  50  89 CALM      29.97S
YUMA AZ        LGT RAIN  54  51  90 W8        29.96R FOG

$$

UPPER DESERT

CITY           SKY/WX    TMP DP  RH WIND       PRES   REMARKS
VICTORVILLE AP MOCLDY    43  37  81 S7        29.91S
HESPERIA         N/A     41  38  90 CALM      30.09S
APPLE VALLEY     N/A     42  37  82 CALM      30.00S
PALMDALE       MOCLDY    43  40  89 W8        29.92F
LANCASTER      CLOUDY    45  39  79 NW6       29.92F
EDWARDS AFB    MOCLDY    44  38  80 NW2       29.89F
DAGGETT        PTCLDY    46  40  79 SE3       29.92F
29 PALMS N     CLOUDY    46  43  89 SE8       29.98S
NEEDLES        LGT RAIN  51  46  83 N5        29.93F

$$

REGIONAL REPORTS

CITY           SKY/WX    TMP DP  RH WIND       PRES   REMARKS
SANTA BARBARA  MOCLDY    50  42  74 CALM      29.94F
SANDBERG       SNOW      36  33  89 SW9       29.91F VSB 1/4 WCI  29
MT. WILSON       N/A     32  34 100 MISG        N/A
LAS VEGAS NV   LGT RAIN  47  40  76 SW6       29.92S
PHOENIX AZ     MOCLDY    66  50  56 S7        29.93S
TIJUANA        LGT RAIN  52  45  76 SE6       29.98S
ENSENADA NW      N/A     53  32  44 E2        29.96S

$$

OFFSHORE ISLANDS

CITY           SKY/WX    TMP DP  RH WIND       PRES   REMARKS
CATALINA ARPT  LGT RAIN  48  45  89 W3        29.93F
SAN NICOLAS IS CLEAR     32  32 100 W8        29.94S WCI  25

$$

MARINE AND OFFSHORE BUOY REPORTS

STATION/POSITION SKY/WX   TEMP    WIND        PRES    SWELL
                          AIR SEA DIR/SP/G            HT/PER/DIR
                          (F)     (DEG/KT/KT) (MB)    (FT/S/D)
TANNER BANKS               58 61  290/  8/ 10 1014.1R   7/320/11
S CLEMENTE BASIN           59 62  250/ 10/ 14 1013.7S   3/260/13
SAN NICOLAS IS.               60                N/A     7/310/11
SO. S. ROSA ISLA           56 60  350/  4/  6 1013.4F   8/12
W. S. BARBARA CH           56 60  350/  8/ 10 1013.5F   7/310/12
S. MONICA BASIN            56 62   50/  8/ 10 1013.9F   3/260/13
S PEDRO CHANNEL               60                N/A     2/240/11
DANA POINT                    61                N/A     2/240/11
CMP PENDLETON NS              62                N/A     2/210/15
OCEANSIDE OFFSHR              62                N/A     2/210/13
TORREY PINES OTR              62                N/A     2/270/12
LA JOLLA 1                 55 62  120/  5/  7   N/A
MISSION BAY BUOY              62                N/A     2/260/12
SAN DIEGO BAY                 65                N/A
POINT LOMA SOUTH              63                N/A     2/250/13

$$



USA.gov is the U.S. government's official web portal to all federal, state and local government web resources and services.